Location: Austin
(30.3000°N, 97.7500°W)
Time: 22:54:18
(UTC-05:00)

Cosmos 2208 Rocket - Pass Details

Date: 08 April 2026
Orbit: 750 x 801 km, 74.0° (Epoch: 20 April)

Event Time Altitude Azimuth Distance (km) Brightness Sun altitude
Rises 20:15:23 0° 348° (NNW) 3,262 7.6 -5.3°
Reaches altitude 10° 20:17:49 10° 352° (N) 2,323 6.8 -5.8°
Maximum altitude 20:23:01 60° 72° (ENE) 873 4.1 -6.9°
Drops below altitude 10° 20:28:07 10° 152° (SSE) 2,280 6.1 -8.0°
Sets 20:30:30 0° 156° (SSE) 3,195 6.8 -8.5°
